Location: Julian California
(33.0790°N, 116.6010°W)
Time: 05:41:05
(UTC-07:00)

Resurs 1-3 - Pass Details

Date: 19 May 2017
Orbit: 630 x 632 km, 98.1° (Epoch: 22 July)

Event Time Altitude Azimuth Distance (km) Brightness Sun altitude
Exits shadow 20:30:08 - 172° (S) 2,944 6.7 -9.7°
Rises 20:30:14 0° 173° (S) 2,904 6.6 -9.7°
Reaches altitude 10° 20:32:25 10° 175° (S) 2,000 5.8 -10.1°
Maximum altitude 20:36:45 67° 259° (WSW) 682 3.9 -10.9°
Drops below altitude 10° 20:41:07 10° 342° (NNW) 2,015 7.0 -11.6°
Sets 20:43:20 0° 345° (NNW) 2,926 7.8 -12.0°
